Terug naar catalogus

DELTA 1 DEB

ActiefSSO
NORAD 21338·DEBRIS·🇺🇸 United States

Gelanceerd Jun 12, 1975 vanaf Vandenberg Space Force Base

Loading…

Volgende Passages (komende 24 uur)

TLE

VersSource: Space-Track

Epoch: Sep 14, 2026, 14:33 UTC

1 21338U 75052BG  26257.60641530  .00000077  00000-0  23203-3 0  9990
2 21338  99.6380 167.2132 0061138  19.9215  98.6170 13.34991887720522

Volg DELTA 1 DEB in realtime met AllMySat

Download on the App Store